SCP
0 0 0 0 0 0 0 0 0 0 0 0 -0 -0 -0 0 0 0 0 0 0 0 0 0 0 0 0 0 0 0 0 0 0 0 0 0 0 0
0 0 0 0 0 0 0 0 0 0 0 0 0 -0 -0 0 0 0 0 0 0 0 0 0 0 0 0 0 0 0 0 0 0 0 0 0 0 0
0 0 0 0 0 0 0 0 0 0 0 0 0 0 -0 -0 0 0 0 0 0 0 0 0 0 0 0 0 0 0 0 0 0 0 0 0 0 0
0 0 0 0 0 0 0 0 0 0 0 0 0 0 0 0 0 0 0 0 0 0 0 0 0 0 0 0 0 0 0 0 0 0 0 0 0 0
0 0 0 0 0 0 0 0 0 0 0 0 0 0 0 0 0 0 0 0 0 0 0 0 0 0 0 0 0 0 0 0 0 0 0 0 0 0
0 0 0 0 0 0 0 0 0 0 0 0 0 0 0 0 0 0 0 0 0 0 0 0 0 0 0 0 0 0 0 0 0 0 0 0 0 0
0 0 0 0 0 0 0 0 0 0 0 0 0 0 0 0 0 0 0 0 0 0 0 0 0 0 0 0 0 0 0 0 0 0 0 0 0 0
0 0 0 0 0 0 0 0 0 0 0 0 0 0 0 0 0 0 0 0 0 0 0 0 0 0 0 0 0 0 0 0 0 0 0 0 0 0
0 0 0 0 0 0 0 0 0 0 0 0 0 0 0 0 0 0 0 0 0 0 0 0 0 0 0 0 0 0 0 0 0 0 0 0 0 0
0 0 0 0 0 0 0 0 0 0 0 0 0 0 0 0 0 0 0 0 0 0 0 0 0 0 0 0 0 0 0 0 0 0 0 0 0 0
0 0 0 0 0 0 0 0 0 0 0 0 0 0 0 0 0 0 0 0 0 0 0 0 0 0 0 0 0 0 0 0 0 0 0 0 0 0
0 0 0 0 0 0 0 0 0 0 0 0 0 0 0 0 0 0 0 0 0 0 0 0 0 0 0 0 0 0 0 0 0 0 0 0 0 0
0 0 0 0 0 0 0 0 0 0 0 0 0 0 0 0 0 0 0 0 0 0 0 0 0 0 0 0 0 0 0 0 0 0 0 0 0 0
0 0 0 0 0 0 0 0 0 0 0 0 0 0 0 0 0 0 0 0 0 0 0 0 0 0 0 0 0 0 0 0 0 0 0 0 0 0
0 0 0 0 0 0 0 0 0 0 0 0 0 0 0 0 0 0 0 0 0 0 0 0 0 0 0 0 0 0 0 0 0 0 0 0 0 0
0 0 0 0 0 0 0 0 0 0 0 0 0 0 0 0 0 0 0 0 0 0 0 0 0 0 0 0 0 0 0 0 0 0 0 0 0 0
0 0 0 0 0 0 0 0 0 0 0 0 0 0 0 0 0 0 0 0 0 0 0 0 0 0 0 0 0 0 0 0 0 0 0 0 0 0
0 0 0 0 0 0 0 0 0 0 0 0 0 0 0 0 0 0 0 0 0 0 0 0 0 0 0 0 0 0 0 0 0 0 0 0 0 0
0 0 0 0 0 0 0 0 0 0 0 0 0 0 0 0 0 0 0 0 0 0 0 0 0 0 0 0 0 0 0 0 0 0 0 0 0 0
0 0 0 0 0 0 0 0 0 0 0 0 0 0 0 0 0 0 0 0 0 0 0 0 0 0 0 0 0 0 0 0 0 0 0 0 0 0
0 0 0 0 0 0 0 0 0 0 0 0 0 0 0 0 0 0 0 0 0 0 0 0 0 0 0 0 0 0 0 0 0 0 0 0 0 0
0 0 0 0 0 0 0 0 0 0 0 0 0 0 0 0 0 0 0 0 0 0 0 0 0 0 0 0 0 0 0 0 0 0 0 0 0 0
0 0 0 0 0 0 0 0 0 0 0 0 0 0 0 0 0 0 0 0 0 0 0 0 0 0 0 0 0 0 0 0 0 0 0 0 0 0
Wind_Speed
2 2 2 2 2 2 2 3 3 6 7 5 4 3 3 4 7 6 6 11 14 15 16 16 16 16 16 16 16 17 17 17 17 18 19 20 21 20
2 2 3 2 2 2 2 3 3 5 7 5 5 5 5 6 8 6 6 14 14 15 15 15 16 16 16 16 17 17 17 17 18 18 19 20 20 20
2 3 3 3 2 2 2 3 3 4 7 7 5 5 5 6 6 6 6 6 7 14 16 16 16 16 16 16 17 18 18 18 18 18 18 19 20 20
3 3 4 4 4 3 3 4 4 4 6 9 7 5 6 6 6 7 7 7 6 12 16 16 17 16 16 17 17 18 18 18 18 17 17 18 19 19
4 4 5 4 5 4 4 5 5 5 5 7 8 6 5 5 6 7 8 7 8 10 14 15 16 16 17 18 18 17 17 18 17 16 17 17 18 18
4 4 5 5 5 5 5 5 5 5 5 6 7 6 6 5 5 6 8 6 7 8 10 11 13 16 17 18 18 18 18 17 17 16 16 16 17 17
4 4 5 6 8 6 6 5 5 5 5 6 7 7 6 5 6 5 8 8 7 6 6 7 7 7 9 13 15 17 17 17 17 16 16 16 15 15
4 5 5 6 8 10 11 11 9 7 7 6 7 8 9 7 6 6 7 8 8 4 5 7 5 7 7 7 12 16 16 16 16 16 15 15 14 14
4 5 6 6 8 6 9 11 10 12 12 9 9 10 10 8 8 9 8 9 10 7 6 9 5 7 6 7 13 15 15 15 14 15 14 13 13 13
4 5 6 6 6 7 7 7 7 8 9 8 9 10 10 8 8 9 10 10 9 6 5 8 6 6 6 5 12 14 14 13 12 12 12 12 12 12
5 5 6 7 10 12 8 8 9 8 10 13 14 13 15 15 12 7 7 7 9 7 4 5 6 6 6 5 7 10 10 11 10 10 11 11 11 10
5 5 9 9 11 11 7 7 9 9 8 9 9 10 10 10 12 8 7 7 8 7 3 4 5 4 6 3 3 3 5 7 9 10 10 10 10 6
5 5 5 11 12 12 10 7 10 11 8 7 7 7 6 6 6 6 6 6 8 8 4 3 5 4 5 6 4 3 3 3 4 5 7 8 8 6
5 5 6 12 13 12 10 10 13 11 6 5 6 6 6 6 6 6 6 6 6 8 7 5 5 5 5 6 5 3 3 3 3 3 3 5 6 6
6 10 11 13 11 8 10 12 9 5 5 5 6 6 6 6 6 5 6 5 5 5 5 5 5 5 4 5 4 4 4 3 2 2 3 3 3 3
6 8 10 10 8 8 8 7 4 4 5 5 6 6 5 5 5 5 5 5 4 4 3 3 4 4 4 4 4 4 3 3 2 3 3 3 3 2
6 4 4 4 5 5 5 4 4 4 4 4 5 5 5 5 5 5 4 4 4 4 4 2 2 1 2 3 3 3 2 2 3 3 3 3 3 2
6 3 4 4 5 5 6 5 5 5 5 5 5 5 5 5 5 5 4 3 4 4 3 3 2 2 2 2 2 3 2 2 3 2 2 3 4 3
4 3 4 5 5 5 5 6 6 6 5 4 5 5 5 5 5 5 4 3 3 3 3 3 2 2 3 4 3 2 2 3 3 2 2 2 3 4
3 4 4 5 5 5 6 6 6 6 5 5 5 5 4 4 4 4 4 4 4 4 3 2 2 2 2 3 3 3 4 3 2 3 3 3 3 4
4 4 5 5 5 5 5 6 6 6 6 5 5 5 4 4 4 4 4 5 4 3 3 3 3 4 2 1 2 2 3 4 4 3 3 3 3 3
5 5 5 5 5 5 6 5 6 6 6 5 5 5 4 3 4 4 4 3 2 3 3 3 2 2 2 1 2 3 3 4 5 6 5 3 2 2
5 5 5 5 5 5 5 6 6 6 5 5 5 5 4 4 3 3 3 3 2 2 2 2 2 2 2 2 1 2 3 4 4 4 5 6 5 4
Wind_Direction
239 243 248 255 248 248 242 234 250 283 284 283 282 273 275 276 285 286 283 286 288 287 286 285 285 283 282 283 283 283 283 282 281 279 274 272 272 271
245 245 255 260 256 252 248 249 240 253 274 277 275 284 286 290 294 293 287 294 293 292 290 289 287 285 283 283 283 283 283 282 281 280 275 272 271 271
263 252 257 257 260 262 258 256 255 250 270 281 276 281 279 279 286 283 283 282 288 292 291 289 287 286 286 284 284 283 283 282 281 278 276 274 273 273
266 262 263 265 261 258 255 256 260 256 263 280 286 285 276 277 278 282 288 286 282 288 290 289 288 287 286 285 284 282 282 281 279 277 278 276 275 274
265 259 263 263 269 269 265 265 268 272 265 273 283 286 285 287 291 289 284 282 283 286 288 287 286 286 287 286 285 285 283 281 278 277 277 277 275 275
271 264 261 257 260 264 267 264 268 273 275 276 283 288 287 285 284 290 294 288 286 288 283 284 285 286 286 286 285 285 283 280 277 276 276 275 274 272
284 281 274 272 274 277 280 276 276 277 280 281 283 289 288 290 282 283 288 293 285 274 278 280 282 278 279 281 281 281 280 279 278 276 276 276 275 273
287 289 286 283 285 289 291 290 285 280 279 277 281 280 282 282 284 284 287 292 291 272 275 283 277 275 274 270 277 280 279 278 278 277 276 277 277 273
293 294 297 295 295 281 285 288 283 281 277 273 275 277 281 282 282 282 277 274 276 280 284 283 276 274 277 281 282 281 280 280 280 280 280 280 280 276
290 286 284 287 286 288 284 284 280 277 275 270 266 272 276 277 269 274 279 282 281 275 262 277 282 278 286 284 286 282 283 284 286 286 288 285 283 279
290 292 289 282 291 298 292 288 288 285 285 283 283 284 287 288 287 287 285 286 288 284 257 263 278 287 284 279 282 285 285 288 291 292 291 289 288 283
295 292 295 294 299 302 292 286 287 290 292 294 291 289 285 284 285 273 269 275 284 283 254 254 277 296 293 275 279 292 289 290 295 296 294 293 289 281
297 296 293 304 304 303 301 290 291 298 295 293 293 292 288 283 279 272 267 264 271 272 269 265 272 271 270 289 295 286 282 292 296 293 293 297 293 283
293 292 293 306 307 306 303 303 307 309 298 297 296 295 296 297 294 289 282 274 267 271 275 266 264 266 270 279 288 297 298 296 293 291 290 301 299 295
295 300 306 309 310 307 306 310 311 304 297 296 294 293 293 293 296 296 294 289 284 279 278 271 266 265 262 270 281 292 302 306 300 305 311 302 294 299
305 309 317 321 318 313 313 313 308 300 299 292 294 295 298 299 299 300 301 304 300 298 290 280 271 268 275 277 276 286 292 291 307 307 305 307 307 295
316 320 326 326 326 320 315 311 308 309 305 297 297 301 303 304 304 304 300 303 298 301 312 313 299 284 284 283 283 284 290 295 296 303 312 315 314 307
330 325 322 322 319 319 319 317 315 310 305 304 303 302 303 304 305 307 303 299 299 299 299 300 308 319 324 329 292 274 288 292 302 310 307 305 312 321
343 329 321 320 319 321 320 317 313 312 308 307 307 305 305 304 306 310 309 307 304 301 303 303 308 316 319 319 328 327 298 305 308 313 316 306 302 306
335 325 320 321 321 321 319 316 313 315 315 310 307 305 303 306 309 310 306 304 305 311 317 322 318 306 291 293 300 318 326 306 305 307 313 314 305 300
330 325 321 319 319 319 317 316 315 315 315 314 310 308 306 308 306 307 304 309 317 318 315 313 303 310 304 312 319 329 343 347 332 306 307 315 320 329
324 322 321 320 320 319 318 319 319 318 319 317 315 314 312 310 306 308 307 305 308 310 312 318 326 332 335 328 328 333 340 347 355 1 354 323 298 302
320 320 319 320 320 318 317 316 315 315 317 317 315 317 315 312 308 304 303 297 299 306 318 327 335 349 346 338 348 348 350 348 350 5 10 11 13 355